User: anonymous
Location: Unspecified
(0.0000°N, 0.0000°E)
Time: 06:15:38
(UTC+02:00)
Language:

Iridium 39 - Orbit

View from above orbital plane
View from above orbital plane
View from above satellite
View from above satellite

Ground track
Ground track

The orbit data is extracted from the following two-line orbital elements,

1 25042U 97069D   14244.47507301  .00000088  00000-0  24455-4 0  9479
2 25042 086.3921 088.4092 0001928 107.2145 252.9262 14.34216792880154
Epoch (UTC): 01 September 2014 11:24:06
Eccentricity: 0.0001928
inclination: 86.3921°
perigee height: 776 km
apogee height: 779 km
right ascension of ascending node: 88.4092°
argument of perigee: 107.2145°
revolutions per day: 14.34216792
mean anomaly at epoch: 252.9262°
orbit number at epoch: 88015

The dashed part of the orbit path shows where the satellite is in the earth's shadow,  

DLR